Regional Weather Roundup
Issued by NWS Upton, NY

Current Version | Previous Version | Graphics & Text | Print | Product List | Glossary Off
Versions: 1 2 3 4 5 6 7 8 9 10 11 12 13 14 15 16 17 18 19 20 21 22 23 24 25 26 27 28 29 30 31 32 33 34 35 36 37 38 39 40 41 42 43 44 45 46 47 48 49 50

109
ASUS41 KOKX 101704
RWROKX

REGIONAL WEATHER ROUNDUP
NATIONAL WEATHER SERVICE NEW YORK NY
1200 PM EST WED FEB 10 2016

NOTE: "FAIR" INDICATES FEW OR NO CLOUDS BELOW 12,000 FEET WITH NO
SIGNIFICANT WEATHER AND/OR OBSTRUCTIONS TO VISIBILITY.

NYZ071-072-176-178-NJZ106-104-101800-
NEW YORK CITY METRO AREA


CITY           SKY/WX    TMP DP  RH WIND       PRES   REMARKS
CENTRAL PARK   CLOUDY    37  24  59 W9        29.63F WCI  30
LAGUARDIA APRT PTSUNNY   38  25  59 W12G21    29.61F WCI  30
KENNEDY INTL   PTSUNNY   36  28  73 W17       29.64S WCI  26
NEWARK/LIBERTY PTSUNNY   39  29  67 W12G20    29.63F WCI  32
BRNX BOT. GARD   N/A     37  25  60 W18       29.63R WCI  27
TETERBORO      MOSUNNY   39  25  57 W13       29.61F WCI  31
$$

NYZ177-179-078>081-101800-
LONG ISLAND NEW YORK

CITY           SKY/WX    TMP DP  RH WIND       PRES   REMARKS
FARMINGDALE    CLOUDY    37  27  67 W10       29.61F WCI  30
ISLIP          LGT SNOW  36  28  73 W12       29.58F WCI  28
SHIRLEY        LGT SNOW  35  30  82 W10       29.60F WCI  27
RIVERHEAD        N/A     36  28  75 W6        29.57F WCI  31
WESTHAMPTON    CLOUDY    35  30  82 W7        29.60F WCI  29
EAST HAMPTON   LGT SNOW  33  31  94 W5        29.59F WCI  29
MONTAUK POINT    N/A     34  33  96 W7        29.59F WCI  28
$$

NYZ052-065-067-101800-
HUDSON VALLEY

CITY           SKY/WX    TMP DP  RH WIND       PRES   REMARKS
WHITE PLAINS   PTSUNNY   37  22  54 W13       29.57F WCI  29
NEWBURGH       PTSUNNY   37  21  52 NW17G29   29.58F WCI  28
MONTGOMERY     PTSUNNY   38  20  48 W8G20     29.57F WCI  32
POUGHKEEPSIE   MOSUNNY   39  21  48 W14       29.57F WCI  31
ALBANY         PTSUNNY   36  29  75 VRB5      29.56F WCI  32
$$

NJZ001-105-106-008-010-013-015-019>022-104-101800-
NEW JERSEY

CITY           SKY/WX    TMP DP  RH WIND       PRES   REMARKS
NEWARK/LIBERTY PTSUNNY   39  29  67 W12G20    29.63F WCI  32
TETERBORO      MOSUNNY   39  25  57 W13       29.61F WCI  31
CALDWELL       CLOUDY    38  21  50 W9        29.62F WCI  31
MORRISTOWN     PTSUNNY   37  25  60 NW13G21   29.63F WCI  29
SOMERVILLE     MOSUNNY   37  23  56 W8G21     29.63F WCI  31
SUSSEX         CLOUDY    37  21  52 VRB5      29.60F WCI  33
ANDOVER          N/A     34  21  59 VRB5G18   29.61F WCI  30
TRENTON        MOSUNNY   35  22  58 W14G21    29.66F WCI  26
MILLVILLE      MOSUNNY   36  24  62 NW17G29   29.73F WCI  26
ATLANTIC CITY  PTSUNNY   35  25  66 W21G30    29.70F WCI  24
WRIGHTSTOWN    MOSUNNY   35  32  86 W17       29.65F WCI  25
TOMS RIVER     CLOUDY    36  28  75 W13G22    29.67F WCI  27
BELMAR         CLOUDY    34  23  64 W10       29.65F WCI  26
$$

PAZ047>061-062-071-101800-
EASTERN PENNSYLVANIA

CITY           SKY/WX    TMP DP  RH WIND       PRES   REMARKS
PHILADELPHIA   PTSUNNY   35  22  58 W20G26    29.73S WCI  24
ALLENTOWN      CLOUDY    33  19  56 W16G24    29.67F WCI  23
SCRANTON       LGT SNOW  30  22  72 SW16      29.61F WCI  19
$$

CTZ002-004>006-009-010-012-RIZ004-006-007-MAZ004-011-015-101800-
SOUTHERN NEW ENGLAND
 IN CT

CITY           SKY/WX    TMP DP  RH WIND       PRES   REMARKS
BRADLEY INTL   FLURRIES  31  28  89 SW6       29.56F WCI  25
HARTFORD       LGT SNOW  34  30  85 CALM      29.58F FOG
DANBURY        MOSUNNY   36  22  56 W8        29.57F WCI  30
WTRBRY/OXFORD  CLOUDY    32  21  64 NW3       29.57F
BRIDGEPORT     CLOUDY    37  30  75 W8        29.59F WCI  31
MERIDEN        CLOUDY    35  28  75 W3        29.58F HAZE
NEW HAVEN      CLOUDY    35  30  82 W5        29.58F WCI  31
CHESTER        CLOUDY    32  32 100 SW5       29.56F WCI  27
GROTON         LGT SNOW  34  34 100 CALM      29.58F FOG
WILLIMANTIC    CLOUDY    31  27  85 CALM      29.57F FOG

 IN RI

CITY           SKY/WX    TMP DP  RH WIND       PRES   REMARKS
PROVIDENCE     LGT SNOW  34  29  82 CALM      29.58F
BLOCK ISLAND   CLOUDY    36  34  93 SW7       29.57S WCI  30
WESTERLY       LGT SNOW  34  33  96 CALM      29.58F FOG

 IN MA

CITY           SKY/WX    TMP DP  RH WIND       PRES   REMARKS
BOSTON         LGT SNOW  31  30  96 S3        29.57F FOG
WORCESTER      LGT SNOW  30  26  85 SW10      29.51F FOG     WCI  21
WESTFIELD      LGT SNOW  30  27  88 SW3       29.55F FOG
PROVINCETOWN   PTSUNNY   33  27  78 VRB3      29.58F
NANTUCKET      CLOUDY    37  31  78 E6        29.57F WCI  32
$$

ANZ330-335-338-340-345-350-353-355-101800-
COASTAL MARINE OBSERVATIONS


STATION/POSITION TIME  SKY/WX   TEMP    WIND        PRES    VSBY  WAVE
                                AIR SEA DIR/SP/G                  HT/PER
                 (UTC)          (F)     (DEG/KT/KT) (MB)    (MI)  (FT/S)
NY HARB ENTRANCE 1550            34 43  280/ 21/ 25 1002.8          4/11
4S FIRE IS       NOT AVBL
20S FIRE ISLAND  1550            36 44  310/ 19/ 23 1002.6          5/11
GREAT SOUTH BAY  NOT AVBL
23SW MTP         1650            35 45  300/ 10/ 12 1001.5          5/11
HUDSON CANYON    1550            39 49              1002.6          7/11
KINGS POINT      1600            36 38  330/ 11/ 17 1002.5
EXECUTION ROCKS  NOT AVBL
CENTRAL LI SOUND 1615            35     260/ 10/ 12   N/A           0
EASTERN LI SOUND 1600            34 42  320/  4/  6   N/A
ROBBINS REEF     1600            34     270/ 19/ 24 1002.6
$$


>>>>>>>>>>>>>>>>>>>>>>>>>>>> KEY <<<<<<<<<<<<<<<<<<<<<<<<<<<
>                                                          <
>     SKY/WX - SKY CONDITION/PRESENT WEATHER               <
>     TMP    - TEMPERATURE IN FAHRENHEIT                   <
>     DP     - DEWPOINT IN FAHRENHEIT                      <
>     RH     - RELATIVE HUMIDITY IN PERCENT                <
>     WIND   - DIRECTION AND SPEED IN MPH                  <
>     PRES   - MEAN SEA LEVEL PRESSURE IN INCHES OF HG     <
>     WCI    - WIND CHILL INDEX                            <
>     VSB    - VISIBILITY IN MILES                         <
>     HX     - HEAT INDEX                                  <
>     TC     - TEMPERATURE IN CELSIUS                      <
>     VRB    - VARIABLE WIND DIRECTION                     <
>                                                          <
>>>>>>>>>>>>>>>>>>>>>>>>>>>> KEY <<<<<<<<<<<<<<<<<<<<<<<<<<<






USA.gov is the U.S. government's official web portal to all federal, state and local government web resources and services.